{"data":{"norad_id":58357,"epoch":"2026-09-20T22:00:03.000096Z","epoch_age_seconds":107674,"freshness":"FRESH","line1":"1 58357U 23177G   26263.91670139 -.00015386  00000+0 -57936-3 0  9990","line2":"2 58357  43.0005 312.9156 0001768 262.6572  36.4975 15.25919731  5878","mean_motion":15.25919731,"eccentricity":0.0001768,"inclination_deg":43.0005,"raan_deg":312.9156,"arg_perigee_deg":262.6572,"mean_anomaly_deg":36.4975,"bstar":-0.00057936,"rev_number":587,"period_min":94.36931515764,"perigee_km":486.81110833673,"apogee_km":489.23898323612,"semimajor_km":6866.1620457864,"source":"CELESTRAK","updated_at":"2026-09-21T09:00:33.841952Z"}}